Printer-friendly version

IAU Minor Planet Center

Minor Planet Center

MPEC 2004-V07 : 2004 VA

The following Minor Planet Electronic Circular may be linked-to from your own Web pages, but must not otherwise be redistributed electronically.


Read MPEC 2004-V06 Read MPEC 2004-V08


M.P.E.C. 2004-V07                                Issued 2004 Nov. 2, 12:28 UT

     The Minor Planet Electronic Circulars contain information on unusual
         minor planets and routine data on comets.  They are published
   on behalf of Commission 20 of the International Astronomical Union by the
          Minor Planet Center, Smithsonian Astrophysical Observatory,
                          Cambridge, MA 02138, U.S.A.

                  Supported in part by the Brinson Foundation
             Prepared using the Tamkin Foundation Computer Network

                              MPC@CFA.HARVARD.EDU
          URL http://cfa-www.harvard.edu/iau/mpc.html  ISSN 1523-6714

                                    2004 VA

Observations:
     K04V00A  C2004 10 07.33844 03 25 18.47 +11 06 59.9          18.8 R EV007699
     K04V00A  C2004 10 07.35467 03 25 18.23 +11 06 56.4                 EV007699
     K04V00A  C2004 10 07.39251 03 25 17.72 +11 06 43.3                 EV007699
     K04V00A  C2004 10 07.40873 03 25 17.47 +11 06 37.8                 EV007699
     K04V00A* C2004 11 01.35082 03 03 31.37 +07 36 16.7          16.8 R EV007699
     K04V00A  C2004 11 01.36538 03 03 29.86 +07 36 06.5                 EV007699
     K04V00A  C2004 11 01.37999 03 03 28.31 +07 35 55.8                 EV007699
     K04V00A  C2004 11 01.39458 03 03 26.79 +07 35 45.5                 EV007699
     K04V00A  C2004 11 02.18454 03 02 08.75 +07 26 32.6          17.2 R EV007854
     K04V00A  C2004 11 02.19029 03 02 08.15 +07 26 28.5          17.2 R EV007854
     K04V00A  C2004 11 02.19604 03 02 07.55 +07 26 24.6          17.0 R EV007854
     K04V00A 5C2004 11 02.21921 03 02 05.10 +07 26 08.9          18.0 R EV007673
     K04V00A 5C2004 11 02.22037 03 02 04.98 +07 26 08.2                 EV007673
     K04V00A 5C2004 11 02.22963 03 02 04.00 +07 26 01.4                 EV007673
     K04V00A 5C2004 11 02.23079 03 02 03.95 +07 25 59.4                 EV007673
     K04V00A 5C2004 11 02.24005 03 02 02.93 +07 25 53.4                 EV007673
     K04V00A 5C2004 11 02.24132 03 02 02.82 +07 25 52.3                 EV007673
     K04V00A  C2004 11 02.36639 03 01 49.44 +07 24 24.2          16.6 R EV007G72
     K04V00A  C2004 11 02.36884 03 01 49.16 +07 24 22.1          16.7 R EV007G72
     K04V00A  C2004 11 02.37125 03 01 48.90 +07 24 20.2          16.8 R EV007G72
     K04V00A  C2004 11 02.37366 03 01 48.65 +07 24 19.2          17.0 R EV007G72
     K04V00A  C2004 11 02.37606 03 01 48.38 +07 24 17.6          17.1 R EV007G72
     K04V00A  C2004 11 02.37847 03 01 48.10 +07 24 15.7          17.0 R EV007G72
     K04V00A  C2004 11 02.38093 03 01 47.87 +07 24 14.0          16.9 R EV007G72
     K04V00A  C2004 11 02.38333 03 01 47.63 +07 24 12.0          17.0 R EV007G72
     K04V00A  C2004 11 02.38580 03 01 47.34 +07 24 09.9          16.9 R EV007G72
     K04V00A  C2004 11 02.38821 03 01 47.11 +07 24 08.4          17.2 R EV007G72

Observer details:
673 Table Mountain Observatory, Wrightwood.  Observer D. Mayes.  0.6-m
    reflector + CCD.
699 Lowell Observatory-LONEOS.  Observer B. A. Skiff.  Measurers B. W. Koehn,
    B. A. Skiff.  0.59-m LONEOS Schmidt + CCD.
854 Sabino Canyon Observatory, Tucson.  Observer J. E. McGaha.  0.36-m f/10.0
    Schmidt-Cassegrain + CCD.
G72 University Hills.  Observer J. Foster.  0.33-m reflector + CCD.

Orbital elements:
2004 VA                                                              PHA 0.027
Epoch 2004 Oct. 2.0 TT = JDT 2453280.5                  MPC
M 308.73228              (2000.0)            P               Q
n   0.37400458     Peri.   43.09705     -0.88807987     -0.45564775
a   1.9078817      Node   109.70386     +0.40224985     -0.83432305
e   0.5974752      Incl.    3.70414     +0.22250662     -0.31030658
P   2.64           H   17.1           G   0.15
From 27 observations 2004 Oct. 7-Nov. 2.

Ephemeris:
2004 VA                  a,e,i = 1.91, 0.60, 4                   q = 0.7680
Date    TT    R. A. (2000) Decl.     Delta      r     Elong.  Phase     V
2004 11 01    03 04.10   +07 40.4    0.585    1.570   168.4     7.3    17.4
2004 11 11    02 44.73   +05 34.9    0.500    1.482   167.1     8.6    17.0
2004 11 21    02 19.97   +03 17.8    0.438    1.392   153.1    18.8    17.0
2004 12 01    01 52.56   +01 09.8    0.394    1.300   136.6    31.4    17.0
2004 12 11    01 25.81   -00 28.7    0.363    1.208   120.0    44.9    17.0
2004 12 21    01 01.89   -01 27.0    0.337    1.115   104.2    58.8    17.1
2004 12 31    00 40.10   -01 52.1    0.311    1.026    88.9    73.5    17.2
2005 01 10    00 16.32   -02 04.7    0.279    0.941    73.2    90.3    17.4
2005 01 20    23 42.32   -02 39.9    0.243    0.867    54.9   111.8    18.0
2005 01 30    22 46.31   -04 29.9    0.214    0.810    31.3   140.8    20.3
2005 02 09    21 29.57   -07 41.6    0.213    0.775     7.0   171.0    31.3
2005 02 19    20 24.30   -10 35.5    0.253    0.769    25.9   145.9    21.3
2005 03 01    19 50.90   -12 20.8    0.318    0.792    43.7   120.2    19.0
2005 03 11    19 40.78   -13 18.5    0.388    0.841    56.1   101.4    18.4
2005 03 21    19 41.81   -13 49.9    0.450    0.909    65.7    87.4    18.2
2005 03 31    19 46.65   -14 07.7    0.499    0.990    74.4    76.5    18.2
2005 04 10    19 51.18   -14 21.7    0.534    1.078    83.2    67.4    18.3
2005 04 20    19 52.86   -14 40.3    0.555    1.169    92.5    59.1    18.3
2005 04 30    19 50.15   -15 10.2    0.567    1.262   103.0    51.1    18.3
2005 05 10    19 41.90   -15 55.7    0.574    1.354   114.7    42.6    18.2
2005 05 20    19 27.62   -16 57.2    0.583    1.445   127.9    33.6    18.1
2005 05 30    19 08.00   -18 08.8    0.601    1.533   142.2    23.9    18.0
2005 06 09    18 45.05   -19 20.5    0.635    1.620   157.3    14.0    18.0
2005 06 19    18 21.95   -20 22.3    0.691    1.703   172.0     4.7    17.9
2005 06 29    18 01.81   -21 09.8    0.770    1.784   172.8     4.1    18.2
2005 07 09    17 46.49   -21 44.8    0.873    1.861   160.0    10.8    18.8
2005 07 19    17 36.62   -22 11.7    0.997    1.936   148.2    16.1    19.4
2005 07 29    17 31.80   -22 34.0    1.138    2.008   137.6    19.9    19.9
2005 08 08    17 31.28   -22 53.7    1.294    2.077   127.9    22.7    20.3
2005 08 18    17 34.31   -23 11.6    1.461    2.143   119.0    24.4    20.7
2005 08 28    17 40.14   -23 27.4    1.637    2.207   110.7    25.4    21.1
2005 09 07    17 48.20   -23 40.5    1.818    2.267   102.9    25.7    21.3
2005 09 17    17 58.05   -23 50.3    2.004    2.325    95.4    25.5    21.6
2005 09 27    18 09.29   -23 56.1    2.191    2.381    88.2    24.9    21.8
2005 10 07    18 21.64   -23 57.1    2.377    2.434    81.2    23.9    22.0
2005 10 17    18 34.87   -23 53.0    2.561    2.484    74.3    22.7    22.2

Timothy B. Spahr             (C) Copyright 2004 MPC           M.P.E.C. 2004-V07

Read MPEC 2004-V06 Read MPEC 2004-V08


Our Web policy. Index to the CBAT/MPC/ICQ pages.


Valid HTML 4.01!